Tracking 23940 objects as of 2-Dec-2021
HD Live streaming from Space Station
objects crossing your sky now

PEGASUS DEB

Track PEGASUS DEB now!
10-day predictions


NORAD ID: 39922
Int'l Code: 1994-029AFV
Perigee: 564.4 km
Apogee: 804.8 km
Inclination: 81.6 °
Period: 98.3 minutes
Semi major axis: 7055 km
RCS: 0.0142 m2 (small)
Launch date: May 19, 1994
Source: United States (US)
Launch site: AIR FORCE WESTERN TEST RANGE (AFWTR)

Note: This is SATELLITE DEBRIS
aabbcc
Your satellite tracking list
Your tracking list is empty




NASA's NSSDC Master Catalog

Two Line Element Set (TLE):
1 39922U 94029AFV 21334.52922806  .00000779  00000-0  11464-3 0  9998
2 39922  81.5985 261.9786 0170372 215.5988 143.3757 14.64891978399930
Source of the keplerian elements: AFSPC